User: anonymous   Login
Location: Franzen
(48.6167°N, 15.3833°E)
Time: 13:58:53
(UTC+00:00)
Language:

Cosmos 2341 Rocket - Orbit

View from above orbital plane
View from above orbital plane
View from above satellite
View from above satellite

Ground track
Ground track

The orbit data is extracted from the following two-line orbital elements,

1 24773U 97017B   21170.95572743  .00000104  00000-0  95490-4 0  9996
2 24773  82.9213   8.5832 0024158 187.9277 284.3888 13.73662395211850
Epoch (UTC): 19 June 2021 22:56:14
Eccentricity: 0.0024158
inclination: 82.9213°
perigee height: 968 km
apogee height: 1004 km
right ascension of ascending node: 8.5832°
argument of perigee: 187.9277°
revolutions per day: 13.73662395
mean anomaly at epoch: 284.3888°
orbit number at epoch: 21185

The dashed part of the orbit path shows where the satellite is in the earth's shadow,  

DLR